DateTimeUTC,F1_A11,F1_S11,BsB_S11,BsG_S11,BsR_S11,BbsB_S11,BbsG_S11,BbsR_S11,BaB_A11,BaG_A11,BaR_A11,Tu_S11,T_S11,Uu_S11,U_S11,P_S11,T1_A11
2021-07-24T09:00:00Z,00000200,20000000,,,,,,,0000.02,0000.11,0000.33,18.5,25.3,07.6,05.0,0665.1,31.1
2021-07-24T09:01:00Z,00000200,20000000,,,,,,,-000.05,-000.26,-000.11,18.5,25.3,07.6,05.0,0665.1,31.1
2021-07-24T09:02:00Z,00000200,20000000,,,,,,,0000.02,0000.24,-000.16,18.5,25.3,07.6,05.0,0665.1,31.1
2021-07-24T09:03:00Z,00000200,60000000,,,,,,,0000.16,0000.11,0000.32,18.5,25.3,07.6,05.0,0665.1,31.1
2021-07-24T09:04:00Z,00000200,40000000,0001.39,0000.97,0000.57,0000.27,0000.17,-000.12,0000.57,0000.43,0000.31,18.6,25.1,07.6,05.2,0666.0,31.1
2021-07-24T09:05:00Z,00000200,00000000,0001.74,0000.82,0000.45,-000.14,0000.11,-000.04,0000.50,0000.45,0000.34,18.7,25.0,07.7,05.2,0666.0,31.1
2021-07-24T09:06:00Z,00000200,00000000,0001.17,0001.28,0000.43,0000.38,0000.07,0000.09,0000.22,0000.09,-000.11,18.7,25.1,07.7,05.2,0666.0,31.1
2021-07-24T09:07:00Z,00000200,00000000,0001.62,0000.25,0000.41,0000.06,-000.13,0000.19,0000.27,0000.76,0000.16,18.7,25.1,07.7,05.2,0666.0,31.1
2021-07-24T09:08:00Z,00000200,00000000,0001.43,0000.72,0000.54,0000.09,-000.19,0000.09,0000.08,-000.15,0000.35,18.7,25.0,07.7,05.2,0666.1,31.1
2021-07-24T09:09:00Z,00000200,00000000,0001.13,0001.26,0000.51,0000.54,0000.09,0000.16,0000.32,0000.27,0000.21,18.7,25.0,07.7,05.2,0666.1,31.1
2021-07-24T09:10:00Z,00000200,00000000,0000.51,0000.72,0000.66,0000.21,0000.25,0000.05,0000.25,0000.13,0000.13,18.7,25.0,07.7,05.2,0666.1,31.1
2021-07-24T09:11:00Z,00000200,00000000,0000.27,0001.00,0000.58,0000.46,0000.00,0000.24,0000.55,0000.25,0000.12,18.7,25.0,07.7,05.2,0666.1,31.1
2021-07-24T09:12:00Z,00000200,00000000,0000.64,0000.89,0000.57,0000.54,0000.02,-000.09,0000.07,0000.11,0000.11,18.7,25.0,07.7,05.2,0666.1,31.1
2021-07-24T09:13:00Z,00000200,00000000,0000.70,0000.61,0000.63,0000.51,-000.11,0000.20,-000.03,0000.18,0000.29,18.7,25.0,07.7,05.2,0666.1,31.1
2021-07-24T09:14:00Z,00000200,00000000,0000.47,0000.72,0000.78,0000.24,0000.00,0000.08,0000.58,0000.32,0000.31,18.7,25.0,07.6,05.2,0666.1,31.1
2021-07-24T09:15:00Z,00000200,00000000,0000.70,0000.73,0000.53,0000.41,-000.03,0000.22,0000.09,0000.32,0000.14,18.7,25.0,07.6,05.2,0666.1,31.1
2021-07-24T09:16:00Z,00000200,00000000,0001.27,0000.77,0000.54,0000.38,-000.11,0000.12,0000.27,0000.43,0000.29,18.8,25.0,07.5,05.1,0666.1,31.1
2021-07-24T09:17:00Z,00000200,00000000,0000.55,0000.62,0000.68,0000.57,0000.09,-000.01,0000.27,0000.17,-000.04,18.9,25.1,07.5,05.1,0666.1,31.1
2021-07-24T09:18:00Z,00000200,00000000,0000.86,0000.72,0000.36,0000.37,-000.20,0000.21,0000.56,0000.33,0000.40,18.9,25.1,07.4,05.1,0666.0,31.1
2021-07-24T09:19:00Z,00000200,00000000,0000.31,0000.91,0000.47,0000.09,-000.01,-000.10,0000.02,-000.22,0000.38,18.9,25.1,07.3,05.0,0666.1,31.1
2021-07-24T09:20:00Z,00000200,00000000,0001.63,0000.54,0000.61,0000.34,0000.28,0000.14,0000.02,0000.37,-000.36,18.9,25.1,07.4,05.1,0666.0,31.1
2021-07-24T09:21:00Z,00000200,00000000,0001.33,0000.71,0000.45,0000.33,0000.14,-000.03,0000.37,0000.42,0000.21,18.9,25.1,07.2,04.9,0666.1,31.1
2021-07-24T09:22:00Z,00000200,00000000,0001.46,0000.67,0000.64,-000.15,-000.09,0000.13,0000.12,-000.47,0000.15,18.9,25.1,07.2,05.0,0666.1,31.1
2021-07-24T09:23:00Z,00000200,00000000,0001.11,0000.93,0000.40,0000.16,0000.16,-000.02,-000.17,0000.61,0000.01,18.9,25.1,07.2,05.0,0666.1,31.1
2021-07-24T09:24:00Z,00000200,00000000,0001.95,0000.82,0000.58,0000.92,-000.11,-000.22,0000.33,-000.51,-000.08,18.9,25.1,07.1,04.9,0666.1,31.1
2021-07-24T09:25:00Z,00000200,00000000,0000.70,0000.52,0000.56,0000.25,0000.21,-000.13,0000.06,0000.17,0000.32,18.9,25.1,07.1,04.9,0666.1,31.1
2021-07-24T09:26:00Z,00000200,00000000,0000.95,0000.97,0000.52,-000.17,-000.01,0000.13,0000.15,0000.39,0000.18,18.9,25.1,07.0,04.8,0666.1,31.1
2021-07-24T09:27:00Z,00000200,00000000,0000.87,0000.89,0000.54,0000.42,-000.19,0000.04,0000.37,0000.28,0000.07,18.9,25.1,07.1,04.8,0666.1,31.1
2021-07-24T09:28:00Z,00000200,00000000,0000.78,0000.74,0000.41,0000.23,0000.06,0000.21,0000.16,0000.02,0000.02,18.9,25.1,07.0,04.8,0666.1,31.1
2021-07-24T09:29:00Z,00000200,00000000,0002.26,0000.69,0000.66,0000.00,-000.30,-000.07,-000.21,-000.11,-000.04,18.9,25.1,06.9,04.7,0666.1,31.1
2021-07-24T09:30:00Z,00000200,00000000,0001.36,0000.84,0000.59,0000.16,-000.06,0000.35,0000.56,0000.19,-000.03,18.9,25.1,06.8,04.6,0666.1,31.1
2021-07-24T09:31:00Z,00000200,00000000,0001.36,0000.84,0000.47,0000.54,-000.07,0000.17,-000.06,0000.42,0000.46,18.9,25.1,06.8,04.6,0666.1,31.1
2021-07-24T09:32:00Z,00000200,00000000,0000.36,0000.91,0000.98,0000.45,-000.08,-000.03,0000.17,0000.41,0000.09,18.9,25.1,06.7,04.6,0666.1,31.1
2021-07-24T09:33:00Z,00000200,00000000,0001.11,0000.51,0000.65,0000.33,0000.13,0000.16,0000.29,-000.11,-000.02,18.8,25.1,06.7,04.6,0666.1,31.1
2021-07-24T09:34:00Z,00000200,00000000,0001.43,0001.18,0000.88,0000.58,-000.06,0000.19,0000.23,0000.16,0000.30,18.8,25.1,06.7,04.6,0666.1,31.1
2021-07-24T09:35:00Z,00000200,00000000,0001.57,0000.99,0000.75,0000.00,-000.22,-000.11,-000.04,0000.03,-000.13,18.8,25.1,06.6,04.5,0666.1,31.1
2021-07-24T09:36:00Z,00000200,00000000,0001.93,0000.67,0000.55,0000.40,-000.01,0000.10,0000.08,0000.24,-000.06,18.9,25.1,06.4,04.4,0666.1,31.1
2021-07-24T09:37:00Z,00000200,00000000,0000.78,0000.80,0000.74,-000.08,0000.20,0000.29,0000.33,0000.05,0000.19,18.9,25.1,06.4,04.4,0666.1,31.1
2021-07-24T09:38:00Z,00000200,00000000,0001.29,0000.67,0000.40,-000.31,0000.20,0000.09,0000.32,0000.38,0000.16,18.8,25.1,06.4,04.4,0666.1,31.1
2021-07-24T09:39:00Z,00000200,00000000,0001.62,0001.14,0000.38,-000.04,0000.17,0000.20,-000.03,-000.09,0000.62,18.8,25.1,06.4,04.4,0666.1,31.1
2021-07-24T09:40:00Z,00000200,00000000,0001.00,0000.84,0000.49,0000.01,-000.34,-000.16,0000.12,0000.00,-000.29,18.8,25.1,06.3,04.3,0666.1,31.1
2021-07-24T09:41:00Z,00000200,00000000,0000.93,0000.52,0000.56,0000.57,0000.17,0000.15,0000.54,0000.64,0000.19,18.8,25.1,06.3,04.3,0666.1,31.1
2021-07-24T09:42:00Z,00000200,00000000,0001.17,0000.95,0000.39,0000.34,-000.25,0000.25,0000.04,0000.49,0000.23,18.8,25.1,06.3,04.3,0666.1,31.1
2021-07-24T09:43:00Z,00000200,00000000,0000.99,0001.06,0000.63,0000.44,-000.16,0000.31,0000.49,-000.05,0000.24,18.8,25.0,06.3,04.3,0666.1,31.1
2021-07-24T09:44:00Z,00000200,00000000,0001.39,0001.12,0000.48,0000.26,0000.20,-000.08,0000.41,0000.13,0000.22,18.8,25.0,06.3,04.3,0666.1,31.1
2021-07-24T09:45:00Z,00000200,00000000,0001.90,0000.99,0000.72,0000.50,0000.06,0000.23,-000.02,0000.32,0000.02,18.8,25.1,06.3,04.3,0666.1,31.1
2021-07-24T09:46:00Z,00000200,00000000,0001.74,0000.93,0000.54,-000.00,0000.01,-000.10,0000.61,0000.44,0000.50,18.8,25.0,06.2,04.3,0666.1,31.1
2021-07-24T09:47:00Z,00000200,00000000,0001.53,0001.00,0000.46,0000.07,-000.17,-000.15,0000.08,0000.46,-000.08,18.8,25.0,06.2,04.3,0666.1,31.1
2021-07-24T09:48:00Z,00000200,00000000,0001.02,0000.93,0000.77,0000.60,0000.32,0000.07,0000.27,0000.00,0000.35,18.8,25.0,06.3,04.3,0666.1,31.1
2021-07-24T09:49:00Z,00000200,00000000,0001.33,0000.82,0000.48,0000.01,0000.27,0000.34,0000.38,0000.14,-000.08,18.8,25.0,06.2,04.2,0666.1,31.1
2021-07-24T09:50:00Z,00000200,00000000,0001.06,0000.80,0000.66,0000.65,0000.11,-000.10,0000.28,0000.44,0000.52,18.8,25.0,06.1,04.2,0666.1,31.1
2021-07-24T09:51:00Z,00000200,00000000,0000.55,0000.74,0000.29,0000.31,0000.16,0000.33,0000.25,-000.27,0000.17,18.8,25.0,06.2,04.2,0666.2,31.1
2021-07-24T09:52:00Z,00000200,00000000,0001.13,0000.84,0000.88,0000.44,0000.07,0000.22,0000.32,0000.55,-000.14,18.8,25.0,06.1,04.2,0666.2,31.1
2021-07-24T09:53:00Z,00000200,00000000,0001.01,0000.92,0001.00,0000.51,-000.33,0000.27,-000.13,0000.33,0000.21,18.8,25.0,06.0,04.1,0666.2,31.1
2021-07-24T09:54:00Z,00000200,00000000,0001.10,0000.89,0000.50,0000.53,0000.06,0000.16,0000.67,0000.38,0000.22,18.8,25.0,06.1,04.2,0666.1,31.1
2021-07-24T09:55:00Z,00000200,00000000,0001.29,0001.09,0000.64,0000.79,-000.33,-000.18,0000.45,0000.22,0000.32,18.8,25.0,06.1,04.2,0666.1,31.0
2021-07-24T09:56:00Z,00000200,00000000,0001.31,0000.89,0000.90,0000.15,0000.23,0000.21,0000.19,0000.42,0000.22,18.8,25.0,06.1,04.2,0666.1,31.1
2021-07-24T09:57:00Z,00000200,40010000,,,,,,,0001.19,0001.05,0000.89,18.8,25.1,06.0,04.1,0666.1,31.1
2021-07-24T09:58:00Z,00000200,60000000,,,,,,,-000.74,-000.62,-000.51,18.6,25.2,06.5,04.3,0665.2,31.1
2021-07-24T09:59:00Z,00000200,20000000,,,,,,,-000.35,-000.35,0000.16,18.6,25.3,06.5,04.3,0665.2,31.1
